Погода в Слайго

Ирландия     54°16′38″N   8°28′03″W
темп.,
°C
ветер,
м/с
пор.,
м/с
влажн.,
%
обл.,
%
осадки,
мм/ч
давл.,
гПа
погр.,
м
2 августа, пн
пн201:00+10сз228699 0.0 1017154
04:00+12юз1287100 0.0 1017121
07:00+12зюз259198 0.3 1016257
10:00+12зюз2496100 2.8 1015277
13:00+13ю2394100 6.9 1015294
16:00+15ююз228668 0.6 1015492
19:00+15ю118728 1.7 1014326
22:00+13вюв019263 0.4 101466
3 августа, вт
вт301:00+11ююв119480 0.4 101446
04:00+10ююв2295100 0.0 101336
07:00+11ююв2396100 0.0 101289
10:00+14ююв3486100 0.0 1012395
13:00+16ююз3477100 0.1 1011783
16:00+15ююв1293100 1.6 101190
19:00+15ююв1191100 1.9 101135
22:00+14ю2292100 0.2 101141
4 августа, ср
ср401:00+13зюз229330 0.3 101266
04:00+11зюз229523 0.1 101273
07:00+12юз129520 0.1 101270
10:00+15юз127757 0.1 1012450
13:00+16юз236884 0.3 1011759
16:00+18ююз3466100 0.3 1010957
19:00+16юз2579100 0.9 1008474
22:00+13ююв2287100 0.1 100796
5 августа, чт
чт501:00+12вюв3489100 0.2 1004162
04:00+12вюв4891100 0.1 1001394
07:00+12вюв51192100 0.6 999609
10:00+13вюв4993100 0.8 998540
13:00+13в2695100 3.1 998346
16:00+15юв1286100 0.3 997470
19:00+14сз2294100 0.5 998170
22:00+14сз3596100 0.3 999290
6 августа, пт
пт601:00+14сз5891100 1.1 999558
04:00+12з479339 0.2 1000288
07:00+12зюз369585 0.5 1000303
10:00+14з4587100 0.4 999622
13:00+15зсз568484 1.7 1000852
16:00+15сз568433 0.9 999679
19:00+15сз468316 1.4 999634
22:00+12сз349151 0.2 999185